Queensbury, NY

5:38 PM EST on December 06, 2016 (GMT -0500)
Bennett Memorial

Weather History for KGFL - January, 2013

Change the Weather History Date:

Monday, January 7, 2013

  Actual Average Record
Temperature  
Mean Temperature 18 °F 18 °F  
Max Temperature 31 °F 28 °F 46 °F (2007)
Min Temperature 4 °F 8 °F -25 °F (1968)
Degree Days  
Heating Degree Days 47 47  
Month to date heating degree days 342 323  
Since 1 July heating degree days 2933 3261  
Cooling Degree Days 0 0  
Month to date cooling degree days 0 0  
Year to date cooling degree days 0 0  
Moisture  
Dew Point 16 °F    
Average Humidity 77    
Maximum Humidity 92    
Minimum Humidity 62    
Precipitation  
Precipitation 0.00 in 0.09 in 0.90 in (1979)
Month to date precipitation T 0.63  
Year to date precipitation T 0.63  
Sea Level Pressure  
Sea Level Pressure 30.27 in    
Wind  
Wind Speed 5 mph (East)    
Max Wind Speed 15 mph    
Max Gust Speed 18 mph    
Visibility 9 miles    
Events      
T = Trace of Precipitation, MM = Missing Value Source: NWS Daily Summary

Daily Weather History Graph

Daily Weather History Graph

Search for Another Location

Airport or City:

Trip Planner

Search our weather history database for the weather conditions in past years. The results will help you decide how hot, cold, wet, or windy it might be!

Date:

Astronomy

Jan. 07, 2013 Rise Set
Actual Time 7:26 AM EST 4:35 PM EST
Civil Twilight 6:54 AM EST 5:07 PM EST
Nautical Twilight 6:18 AM EST 5:43 PM EST
Astronomical Twilight 5:44 AM EST 6:17 PM EST
Moon 2:45 AM EST (1/7) 12:45 PM EST (1/7)
Length of Visible Light 10h 13m
Length of Day
9h 08m
Waning Crescent, 23% of the Moon is Illuminated
Jan 7
Waning Crescent
Jan 11
New
Jan 18
First Quarter
Jan 26
Full
Feb 3
Last Quarter

Hourly Weather History & Observations

Time (EST) Temp. Windchill Dew Point Humidity Pressure Visibility Wind Dir Wind Speed Gust Speed Precip Events Conditions
12:21 AM 24.8 °F 17.9 °F 23.0 °F 93% 29.96 in 3.0 mi South 5.8 mph - N/A   Mostly Cloudy
12:53 AM 28.9 °F 22.8 °F 26.1 °F 89% 30.00 in 7.0 mi South 5.8 mph - N/A   Mostly Cloudy
1:53 AM 27.0 °F - 25.0 °F 92% 30.03 in 5.0 mi Calm Calm - N/A   Overcast
2:53 AM 28.9 °F 21.1 °F 26.1 °F 89% 30.06 in 5.0 mi NNE 8.1 mph - N/A   Overcast
3:53 AM 24.1 °F 13.7 °F 19.0 °F 81% 30.11 in 10.0 mi ENE 10.4 mph - N/A   Overcast
4:07 AM 23.0 °F 10.6 °F 17.6 °F 80% 30.10 in 10.0 mi ENE 13.8 mph - N/A   Overcast
4:31 AM 21.2 °F 10.1 °F 17.6 °F 86% 30.12 in 10.0 mi ENE 10.4 mph - N/A   Mostly Cloudy
4:53 AM 21.0 °F 11.4 °F 17.1 °F 85% 30.16 in 10.0 mi East 8.1 mph - N/A   Mostly Cloudy
5:00 AM 21.2 °F 10.9 °F 15.8 °F 80% 30.14 in 10.0 mi East 9.2 mph - N/A   Mostly Cloudy
5:24 AM 19.4 °F 7.2 °F 15.8 °F 86% 30.16 in 10.0 mi ENE 11.5 mph - N/A   Scattered Clouds
5:53 AM 19.9 °F 7.9 °F 15.1 °F 81% 30.22 in 10.0 mi ENE 11.5 mph - N/A   Mostly Cloudy
6:02 AM 19.4 °F 7.9 °F 15.8 °F 86% 30.20 in 10.0 mi ENE 10.4 mph - N/A   Overcast
6:49 AM 19.4 °F 7.9 °F 15.8 °F 86% 30.23 in 10.0 mi ENE 10.4 mph - N/A   Overcast
6:53 AM 19.9 °F 8.6 °F 15.1 °F 81% 30.27 in 10.0 mi ENE 10.4 mph - N/A   Overcast
7:53 AM 19.0 °F 11.1 °F 14.0 °F 81% 30.31 in 10.0 mi ENE 5.8 mph - N/A   Mostly Cloudy
8:02 AM 19.4 °F 12.8 °F 14.0 °F 80% 30.28 in 10.0 mi ENE 4.6 mph - N/A   Mostly Cloudy
8:53 AM 19.0 °F 9.0 °F 12.9 °F 77% 30.36 in 10.0 mi ENE 8.1 mph - N/A   Mostly Cloudy
9:53 AM 19.0 °F 12.3 °F 12.9 °F 77% 30.40 in 10.0 mi ENE 4.6 mph - N/A   Clear
10:53 AM 19.9 °F 12.1 °F 12.9 °F 74% 30.41 in 10.0 mi East 5.8 mph - N/A   Mostly Cloudy
11:17 AM 21.2 °F 13.6 °F 14.0 °F 74% 30.37 in 10.0 mi NE 5.8 mph - N/A   Scattered Clouds
11:53 AM 21.9 °F 17.2 °F 14.0 °F 72% 30.39 in 10.0 mi East 3.5 mph - N/A   Clear
12:53 PM 24.1 °F - 14.0 °F 65% 30.39 in 10.0 mi Calm Calm - N/A   Clear
1:53 PM 24.8 °F - 15.8 °F 69% 30.36 in 10.0 mi Calm Calm - N/A   Clear
2:53 PM 26.1 °F 20.5 °F 16.0 °F 66% 30.39 in 10.0 mi South 4.6 mph - N/A   Clear
3:53 PM 27.0 °F 21.6 °F 16.0 °F 63% 30.40 in 10.0 mi SSE 4.6 mph - N/A   Clear
4:53 PM 25.0 °F 19.3 °F 16.0 °F 69% 30.40 in 10.0 mi South 4.6 mph - N/A   Clear
5:53 PM 21.9 °F 13.4 °F 15.1 °F 75% 30.40 in 10.0 mi SSE 6.9 mph - N/A   Clear
6:53 PM 19.9 °F 14.9 °F 14.0 °F 78% 30.38 in 10.0 mi South 3.5 mph - N/A   Clear
7:53 PM 19.9 °F 11.1 °F 15.1 °F 81% 30.38 in 10.0 mi SSW 6.9 mph - N/A   Clear
8:53 PM 19.0 °F 12.3 °F 15.1 °F 85% 30.37 in 9.0 mi South 4.6 mph - N/A   Clear
9:53 PM 14.0 °F - 10.0 °F 84% 30.38 in 8.0 mi Calm Calm - N/A   Clear
10:53 PM 9.0 °F - 5.0 °F 84% 30.36 in 6.0 mi Calm Calm - N/A   Clear
11:53 PM 7.0 °F - 3.0 °F 84% 30.34 in 9.0 mi Calm Calm - N/A   Clear